Location: Rock Island IL
(41.5000°N, 90.5500°W)
Time: 18:21:28
(UTC-06:00)

ISS - Visible Passes

Search period start: 24 November 2017 00:00
Search period end: 04 December 2017 00:00
Orbit: 401 x 407 km, 51.6° (Epoch: 25 November)

Date Brightness Start Highest point End Pass type
(mag) Time Alt. Az. Time Alt. Az. Time Alt. Az.
25 Nov -1.8 18:24:13 10° S 18:25:36 19° S 18:25:36 19° S visible
26 Nov -1.6 17:33:10 10° SSE 17:34:47 13° SE 17:35:44 12° ESE visible
26 Nov -0.9 19:07:35 10° WSW 19:08:24 17° WSW 19:08:24 17° WSW visible
27 Nov -3.7 18:15:15 10° SW 18:18:26 59° SSE 18:18:26 59° SSE visible
28 Nov -2.7 17:23:16 10° SSW 17:26:11 30° SE 17:28:23 15° E visible
28 Nov -1.3 18:59:34 10° W 19:01:02 22° WNW 19:01:02 22° WNW visible
29 Nov -3.5 18:06:54 10° WSW 18:10:07 58° NNW 18:10:53 43° NNE visible
30 Nov -3.8 17:14:26 10° SW 17:17:42 75° SE 17:20:40 12° ENE visible
30 Nov -1.3 18:51:49 10° WNW 18:53:20 18° NW 18:53:20 18° NW visible
01 Dec -2.4 17:58:54 10° W 18:01:52 30° NNW 18:03:03 23° NNE visible
02 Dec -3.2 17:06:06 10° WSW 17:09:18 48° NNW 17:12:30 10° NE visible
02 Dec -1.2 18:44:12 10° NW 18:45:22 15° NNW 18:45:22 15° NNW visible
03 Dec -1.8 17:51:08 10° WNW 17:53:39 20° NNW 17:54:59 16° NNE visible
